From 08/05/2019 00:00 to 08/22/2019 00:00

Date LAKE ELEVATION [FT] PRECIPITATION INCREMENT [IN] PRECIPITATION TOTAL [IN] AIR TEMPERATURE [F] RELATIVE HUMIDITY [%] RELEASE [CFS]
08/19/2019 21:00 115.71 0.00 -- 75.0 -- 3.0
08/19/2019 20:00 115.72 0.00 -- 78.0 -- 2.8
08/19/2019 19:00 115.70 0.00 -- 77.0 -- 2.8
08/19/2019 18:00 115.70 0.20 -- 76.0 -- 2.8
08/19/2019 17:00 115.67 0.00 -- 87.0 -- 2.0
08/19/2019 16:00 115.68 0.00 -- 90.0 -- 2.0
08/19/2019 15:00 115.68 0.00 -- 88.0 -- 2.0
08/19/2019 14:00 115.69 0.00 -- 85.0 -- 2.0
08/19/2019 13:00 115.68 0.00 -- 84.0 -- 2.0
08/19/2019 12:00 115.69 0.00 -- 82.0 -- 2.5
08/19/2019 11:00 115.71 0.00 -- 80.0 -- 3.0
08/19/2019 10:00 115.71 0.00 -- 78.0 -- 3.0
08/19/2019 09:00 115.71 0.00 -- 74.0 -- 3.0
08/19/2019 08:00 115.71 0.00 -- 72.0 -- 3.0
08/19/2019 07:00 115.71 0.00 -- 71.0 -- 3.0
08/19/2019 06:00 115.70 0.00 -- 71.0 -- 3.0
08/19/2019 05:00 115.71 0.00 -- 70.0 -- 3.0
08/19/2019 04:00 115.71 0.00 -- 70.0 -- 3.0
08/19/2019 03:00 115.71 0.00 -- 70.0 -- 3.0
08/19/2019 02:00 115.71 0.00 -- 70.0 -- 3.0
08/19/2019 01:00 115.71 0.00 -- 71.0 -- 3.0
08/19/2019 00:00 115.71 0.00 -- 70.0 -- 3.0
08/18/2019 23:00 115.71 0.00 -- 71.0 -- 3.0
08/18/2019 22:00 115.71 0.00 -- 72.0 -- 3.0
08/18/2019 21:00 115.70 0.00 -- 74.0 -- 3.0
08/18/2019 20:00 115.70 0.00 -- 76.0 -- 3.0
08/18/2019 19:00 115.70 0.00 -- 79.0 -- 3.0
08/18/2019 18:00 115.70 0.00 -- 80.0 -- 3.0
08/18/2019 17:00 115.71 0.00 -- 84.0 -- 3.0
08/18/2019 16:00 115.71 0.00 -- 84.0 -- 3.0
08/18/2019 15:00 115.71 0.00 -- 83.0 -- 3.0
08/18/2019 14:00 115.72 0.00 -- 80.0 -- 3.0
08/18/2019 13:00 115.72 0.00 -- 76.0 -- 3.0
08/18/2019 12:00 115.72 0.00 -- 73.0 -- 3.0
08/18/2019 11:00 115.71 0.00 -- 70.0 -- 3.0
08/18/2019 10:00 115.72 0.00 -- 69.0 -- 3.0
08/18/2019 09:00 115.72 0.00 -- 68.0 -- 3.0
08/18/2019 08:00 115.72 0.00 -- 67.0 -- 3.0
08/18/2019 07:00 115.72 0.00 -- 67.0 -- 3.0
08/18/2019 06:00 115.72 0.00 -- 66.0 -- 3.0
08/18/2019 05:00 115.72 0.00 -- 67.0 -- 3.0
08/18/2019 04:00 115.72 0.00 -- 67.0 -- 3.0
08/18/2019 03:00 115.72 0.00 -- 68.0 -- 3.0
08/18/2019 02:00 115.72 0.01 -- 67.0 -- 3.0
08/18/2019 01:00 115.72 0.05 -- 68.0 -- 3.0
08/18/2019 00:00 115.71 0.00 0.06 68.0 -- 3.0
08/17/2019 23:00 115.71 0.00 -- 68.0 -- 3.0
08/17/2019 22:00 115.71 0.00 -- 68.0 -- 3.0
08/17/2019 21:00 115.71 0.00 -- 68.0 -- 3.0
08/17/2019 20:00 115.71 0.00 -- 70.0 -- 3.0
08/17/2019 19:00 115.71 0.00 -- 74.0 -- 3.0
08/17/2019 18:00 115.71 0.00 -- 75.0 -- 3.0
08/17/2019 17:00 115.72 0.00 -- 76.0 -- 3.0
08/17/2019 16:00 115.72 0.00 -- 75.0 -- 3.0
08/17/2019 15:00 115.72 0.00 -- 73.0 -- 3.0
08/17/2019 14:00 115.72 0.00 -- 71.0 -- 3.0
08/17/2019 13:00 115.72 0.00 -- 72.0 -- 3.0
08/17/2019 12:00 115.72 0.00 -- 71.0 -- 3.0
08/17/2019 11:00 115.73 0.00 -- 70.0 -- 3.0
08/17/2019 10:00 115.72 0.00 -- 69.0 -- 3.0
08/17/2019 09:00 115.72 0.00 -- 68.0 -- 3.0
08/17/2019 08:00 115.72 0.00 -- 67.0 -- 3.0
08/17/2019 07:00 115.73 0.00 -- 66.0 -- 3.0
08/17/2019 06:00 115.72 0.00 -- 66.0 -- 3.0
08/17/2019 05:00 115.72 0.00 -- 66.0 -- 3.0
08/17/2019 04:00 115.73 0.00 -- 67.0 -- 3.0
08/17/2019 03:00 115.73 0.00 -- 66.0 -- 3.0
08/17/2019 02:00 115.73 0.00 -- 66.0 -- 3.0
08/17/2019 01:00 115.73 0.00 -- 66.0 -- 3.0
08/17/2019 00:00 115.73 0.00 0.00 66.0 -- 3.0
08/16/2019 23:00 115.73 0.00 -- 65.0 -- 3.0
08/16/2019 22:00 115.73 0.00 -- 66.0 -- 3.0
08/16/2019 21:00 115.73 0.00 -- 67.0 -- 3.0
08/16/2019 20:00 115.72 0.00 -- 69.0 -- 3.0
08/16/2019 19:00 115.72 0.00 -- 72.0 -- 3.0
08/16/2019 18:00 115.73 0.00 -- 74.0 -- 3.0
08/16/2019 17:00 115.73 0.00 -- 75.0 -- 3.0
08/16/2019 16:00 115.73 0.00 -- 74.0 -- 3.0
08/16/2019 15:00 115.73 0.00 -- 74.0 -- 3.0
08/16/2019 14:00 115.73 0.00 -- 75.0 -- 3.0
08/16/2019 13:00 115.74 0.00 -- 75.0 -- 3.0
08/16/2019 12:00 115.74 0.00 -- 73.0 -- 3.0
08/16/2019 11:00 115.74 0.00 -- 68.0 -- 3.0
08/16/2019 10:00 115.74 0.00 -- 65.0 -- 3.0
08/16/2019 09:00 115.74 0.00 -- 64.0 -- 3.0
08/16/2019 08:00 115.74 0.00 -- 64.0 -- 3.3
08/16/2019 07:00 115.74 0.00 -- 65.0 -- 3.0
08/16/2019 06:00 115.74 0.00 -- 64.0 -- 3.0
08/16/2019 05:00 115.74 0.00 -- 65.0 -- 3.5
08/16/2019 04:00 115.74 0.00 -- 65.0 -- 3.5
08/16/2019 03:00 115.74 0.00 -- 65.0 -- 3.8
08/16/2019 02:00 115.75 0.00 -- 64.0 -- 4.0
08/16/2019 01:00 115.75 0.00 -- 64.0 -- 4.0
08/16/2019 00:00 115.75 0.00 0.00 64.0 -- 4.0
08/15/2019 23:00 115.75 0.00 -- 64.0 -- 4.0
08/15/2019 22:00 115.74 0.00 -- 66.0 -- 3.3
08/15/2019 21:00 115.74 0.00 -- 67.0 -- 3.5
08/15/2019 20:00 115.74 0.00 -- 70.0 -- 3.8
08/15/2019 19:00 115.74 0.00 -- 72.0 -- 3.0
08/15/2019 18:00 115.74 0.00 -- 74.0 -- 3.3
08/15/2019 17:00 115.74 0.00 -- 75.0 -- 3.3
08/15/2019 16:00 115.74 0.00 -- 75.0 -- 3.5
08/15/2019 15:00 115.75 0.00 -- 76.0 -- 4.0
08/15/2019 14:00 115.75 0.00 -- 75.0 -- 4.0
08/15/2019 13:00 115.75 0.00 -- 74.0 -- 4.0
08/15/2019 12:00 115.75 0.00 -- 72.0 -- 4.0
08/15/2019 11:00 115.75 0.00 -- 68.0 -- 4.0
08/15/2019 10:00 115.76 0.00 -- 66.0 -- 4.0
08/15/2019 09:00 115.76 0.00 -- 62.0 -- 4.0
08/15/2019 08:00 115.75 0.00 -- 60.0 -- 4.0
08/15/2019 07:00 115.76 0.00 -- 59.0 -- 4.3
08/15/2019 06:00 115.76 0.00 -- 59.0 -- 4.3
08/15/2019 05:00 115.76 0.00 -- 59.0 -- 4.3
08/15/2019 04:00 115.77 0.00 -- 59.0 -- 5.0
08/15/2019 03:00 115.77 0.00 -- 61.0 -- 5.0
08/15/2019 02:00 115.77 0.00 -- 60.0 -- 5.0
08/15/2019 01:00 115.77 0.00 -- 61.0 -- 5.0
08/15/2019 00:00 115.77 0.00 0.00 62.0 -- 5.0
08/14/2019 23:00 115.77 0.00 -- 63.0 -- 5.0
08/14/2019 22:00 115.77 0.00 -- 64.0 -- 5.0
08/14/2019 21:00 115.77 0.00 -- 66.0 -- 5.0
08/14/2019 20:00 115.77 0.00 -- 70.0 -- 5.0
08/14/2019 19:00 115.77 0.00 -- 73.0 -- 5.0
08/14/2019 18:00 115.77 0.00 -- 75.0 -- 5.0
08/14/2019 17:00 115.77 0.00 -- 75.0 -- 5.0
08/14/2019 16:00 115.77 0.00 -- 75.0 -- 5.0
08/14/2019 15:00 115.78 0.00 -- 76.0 -- 6.0
08/14/2019 14:00 115.78 0.00 -- 74.0 -- 6.0
08/14/2019 13:00 115.79 0.00 -- 72.0 -- 6.3
08/14/2019 12:00 115.79 0.00 -- 70.0 -- 6.0
08/14/2019 11:00 115.79 0.00 -- 70.0 -- 6.0
08/14/2019 10:00 115.79 0.00 -- 67.0 -- 6.8
08/14/2019 09:00 115.79 0.00 -- 64.0 -- 6.5
08/14/2019 08:00 115.79 0.00 -- 63.0 -- 7.0
08/14/2019 07:00 115.79 0.00 -- 63.0 -- 7.0
08/14/2019 06:00 115.79 0.00 -- 65.0 -- 6.5
08/14/2019 05:00 115.79 0.01 -- 68.0 -- 6.0
08/14/2019 04:00 115.78 0.00 -- 68.0 -- 6.0
08/14/2019 03:00 115.78 0.00 -- 67.0 -- 6.3
08/14/2019 02:00 115.79 0.00 -- 68.0 -- 7.5
08/14/2019 01:00 115.80 0.00 -- 68.0 -- 8.0
08/14/2019 00:00 115.80 0.00 0.01 68.0 -- 8.0
08/13/2019 23:00 115.81 0.04 -- 68.0 -- 8.0
08/13/2019 22:00 115.80 0.72 -- 68.0 -- 5.8
08/13/2019 21:00 115.72 0.00 -- 74.0 -- 3.0
08/13/2019 20:00 115.72 0.00 -- 78.0 -- 3.0
08/13/2019 19:00 115.72 0.00 -- 79.0 -- 3.0
08/13/2019 18:00 115.72 0.00 -- 80.0 -- 3.0
08/13/2019 17:00 115.72 0.00 -- 81.0 -- 3.0
08/13/2019 16:00 115.71 0.00 -- 79.0 -- 3.0
08/13/2019 15:00 115.72 0.00 -- 78.0 -- 3.0
08/13/2019 14:00 115.72 0.00 -- 77.0 -- 3.0
08/13/2019 13:00 115.72 0.00 -- 76.0 -- 3.0
08/13/2019 12:00 115.73 0.00 -- 76.0 -- 3.0
08/13/2019 11:00 115.74 0.00 -- 75.0 -- 3.5
08/13/2019 10:00 115.75 0.00 -- 75.0 -- 3.5
08/13/2019 09:00 115.74 0.00 -- 73.0 -- 3.0
08/13/2019 08:00 115.73 0.00 -- 69.0 -- 3.0
08/13/2019 07:00 115.73 0.00 -- 69.0 -- 3.0
08/13/2019 06:00 115.72 0.00 -- 71.0 -- 3.0
08/13/2019 05:00 115.72 0.00 -- 72.0 -- 3.0
08/13/2019 04:00 115.74 0.00 -- 72.0 -- 3.5
08/13/2019 03:00 115.74 0.00 -- 72.0 -- 3.5
08/13/2019 02:00 115.75 0.00 -- 72.0 -- 4.0
08/13/2019 01:00 115.75 0.00 -- 71.0 -- 4.0
08/13/2019 00:00 115.74 0.00 0.76 70.0 -- 4.0
08/12/2019 23:00 115.74 0.00 -- 69.0 -- 3.8
08/12/2019 22:00 115.75 0.00 -- 71.0 -- 3.8
08/12/2019 21:00 115.75 0.00 -- 74.0 -- 3.8
08/12/2019 20:00 115.72 0.00 -- 79.0 -- 3.0
08/12/2019 19:00 115.74 0.00 -- 82.0 -- 3.0
08/12/2019 18:00 115.74 0.00 -- 83.0 -- 3.0
08/12/2019 17:00 115.74 0.00 -- 82.0 -- 3.0
08/12/2019 16:00 115.73 0.00 -- 82.0 -- 3.0
08/12/2019 15:00 115.73 0.00 -- 81.0 -- 3.5
08/12/2019 14:00 115.76 0.00 -- 80.0 -- 4.0
08/12/2019 13:00 115.76 0.00 -- 78.0 -- 4.0
08/12/2019 12:00 115.76 0.00 -- 75.0 -- 4.0
08/12/2019 11:00 115.75 0.00 -- 72.0 -- 4.0
08/12/2019 10:00 115.75 0.00 -- 69.0 -- 4.0
08/12/2019 09:00 115.75 0.00 -- 66.0 -- 4.0
08/12/2019 08:00 115.75 0.00 -- 61.0 -- 4.0
08/12/2019 07:00 115.75 0.00 -- 59.0 -- 4.0
08/12/2019 06:00 115.75 0.00 -- 59.0 -- 4.0
08/12/2019 05:00 115.75 0.00 -- 59.0 -- 4.0
08/12/2019 04:00 115.75 0.00 -- 60.0 -- 4.0
08/12/2019 03:00 115.76 0.00 -- 61.0 -- 4.0
08/12/2019 02:00 115.75 0.00 -- 61.0 -- 4.0
08/12/2019 01:00 115.76 0.00 -- 62.0 -- 4.0
08/12/2019 00:00 115.76 0.00 0.00 63.0 -- 4.0
08/11/2019 23:00 115.76 0.00 -- 64.0 -- 4.3
08/11/2019 22:00 115.76 0.00 -- 66.0 -- 4.3
08/11/2019 21:00 115.75 0.00 -- 69.0 -- 4.0
08/11/2019 20:00 115.75 0.00 -- 73.0 -- 4.0
08/11/2019 19:00 115.75 0.00 -- 75.0 -- 4.0
08/11/2019 18:00 115.75 0.00 -- 76.0 -- 4.3
08/11/2019 17:00 115.77 0.00 -- 76.0 -- 5.0
08/11/2019 16:00 115.77 0.00 -- 75.0 -- 5.0
08/11/2019 15:00 115.78 0.00 -- 74.0 -- 5.0
08/11/2019 14:00 115.77 0.00 -- 73.0 -- 5.5
08/11/2019 13:00 115.78 0.00 -- 72.0 -- 5.8
08/11/2019 12:00 115.78 0.00 -- 70.0 -- 5.5
08/11/2019 11:00 115.77 0.00 -- 68.0 -- 5.3
08/11/2019 10:00 115.77 0.00 -- 66.0 -- 5.0
08/11/2019 09:00 115.77 0.00 -- 62.0 -- 5.0
08/11/2019 08:00 115.77 0.00 -- 56.0 -- 5.0
08/11/2019 07:00 115.77 0.00 -- 54.0 -- 5.0
08/11/2019 06:00 115.77 0.00 -- 55.0 -- 5.0
08/11/2019 05:00 115.77 0.00 -- 55.0 -- 5.0
08/11/2019 04:00 115.77 0.00 -- 56.0 -- 5.0
08/11/2019 03:00 115.77 0.00 -- 56.0 -- 5.3
08/11/2019 02:00 115.79 0.00 -- 57.0 -- 6.0
08/11/2019 01:00 115.78 0.00 -- 58.0 -- 5.0
08/11/2019 00:00 115.77 0.00 0.00 59.0 -- 4.3
08/10/2019 23:00 115.75 0.00 -- 60.0 -- 4.0
08/10/2019 22:00 115.75 0.00 -- 63.0 -- 4.0
08/10/2019 21:00 115.75 0.00 -- 68.0 -- 4.0
08/10/2019 20:00 115.76 0.00 -- 71.0 -- 4.3
08/10/2019 19:00 115.77 0.00 -- 72.0 -- 4.5
08/10/2019 18:00 115.76 0.00 -- 73.0 -- 4.3
08/10/2019 17:00 115.76 0.00 -- 73.0 -- 4.8
08/10/2019 16:00 115.75 0.00 -- 72.0 -- 4.3
08/10/2019 15:00 115.76 0.00 -- 74.0 -- 4.0
08/10/2019 14:00 115.76 0.00 -- 74.0 -- 4.0
08/10/2019 13:00 115.77 0.00 -- 74.0 -- 4.8
08/10/2019 12:00 115.76 0.00 -- 72.0 -- 4.0
08/10/2019 11:00 115.76 0.00 -- 71.0 -- 4.0
08/10/2019 10:00 115.76 0.00 -- 68.0 -- 4.0
08/10/2019 09:00 115.75 0.00 -- 66.0 -- 4.0
08/10/2019 08:00 115.76 0.00 -- 62.0 -- 4.0
08/10/2019 07:00 115.76 0.00 -- 60.0 -- 4.0
08/10/2019 06:00 115.76 0.00 -- 60.0 -- 4.3
08/10/2019 05:00 115.76 0.00 -- 61.0 -- 4.5
08/10/2019 04:00 115.77 0.00 -- 61.0 -- 4.3
08/10/2019 03:00 115.77 0.00 -- 61.0 -- 4.5
08/10/2019 02:00 115.76 0.00 -- 62.0 -- 4.0
08/10/2019 01:00 115.76 0.00 -- 63.0 -- 4.5
08/10/2019 00:00 115.77 0.00 0.00 63.0 -- 4.8
08/09/2019 23:00 115.77 0.00 -- 66.0 -- 5.0
08/09/2019 22:00 115.78 0.00 -- 68.0 -- 5.8
08/09/2019 21:00 115.78 0.00 -- 71.0 -- 6.0
08/09/2019 20:00 115.78 0.00 -- 77.0 -- 6.0
08/09/2019 19:00 115.79 0.00 -- 81.0 -- 6.0
08/09/2019 18:00 115.79 0.00 -- 81.0 -- 6.3
08/09/2019 17:00 115.79 0.00 -- 81.0 -- 6.5
08/09/2019 16:00 115.79 0.00 -- 80.0 -- 6.8
08/09/2019 15:00 115.79 0.01 -- 80.0 -- 6.8
08/09/2019 14:00 115.79 0.00 -- 79.0 -- 6.5
08/09/2019 13:00 115.78 0.00 -- 77.0 -- 6.0
08/09/2019 12:00 115.78 0.00 -- 76.0 -- 6.0
08/09/2019 11:00 115.79 0.00 -- 74.0 -- 6.8
08/09/2019 10:00 115.79 0.00 -- 72.0 -- 6.5
08/09/2019 09:00 115.78 0.00 -- 68.0 -- 6.0
08/09/2019 08:00 115.79 0.00 -- 64.0 -- 6.5
08/09/2019 07:00 115.79 0.00 -- 63.0 -- 7.0
08/09/2019 06:00 115.80 0.00 -- 64.0 -- 7.0
08/09/2019 05:00 115.80 0.00 -- 64.0 -- 7.3
08/09/2019 04:00 115.80 0.00 -- 64.0 -- 8.0
08/09/2019 03:00 115.80 0.00 -- 64.0 -- 7.8
08/09/2019 02:00 115.80 0.00 -- 66.0 -- 8.0
08/09/2019 01:00 115.81 0.00 -- 66.0 -- 8.5
08/09/2019 00:00 115.81 0.00 0.01 66.0 -- 9.0
08/08/2019 23:00 115.82 0.00 -- 67.0 -- 8.8
08/08/2019 22:00 115.81 0.41 -- 67.0 -- 9.0
08/08/2019 21:00 115.80 0.00 -- 75.0 -- 7.0
08/08/2019 20:00 115.79 0.00 -- 80.0 -- 7.0
08/08/2019 19:00 115.80 0.00 -- 84.0 -- 7.0
08/08/2019 18:00 115.80 0.00 -- 85.0 -- 8.0
08/08/2019 17:00 115.80 0.00 -- 84.0 -- 8.0
08/08/2019 16:00 115.81 0.00 -- 83.0 -- 8.0
08/08/2019 15:00 115.81 0.00 -- 81.0 -- 8.0
08/08/2019 14:00 115.80 0.00 -- 79.0 -- 8.0
08/08/2019 13:00 115.80 0.00 -- 77.0 -- 7.3
08/08/2019 12:00 115.80 0.00 -- 75.0 -- 7.5
08/08/2019 11:00 115.81 0.00 -- 74.0 -- 8.0
08/08/2019 10:00 115.81 0.00 -- 72.0 -- 8.3
08/08/2019 09:00 115.81 0.00 -- 70.0 -- 8.5
08/08/2019 08:00 115.81 0.00 -- 70.0 -- 8.8
08/08/2019 07:00 115.82 0.00 -- 69.0 -- 9.0
08/08/2019 06:00 115.82 0.00 -- 69.0 -- 9.3
08/08/2019 05:00 115.82 0.01 -- 69.0 -- 10.0
08/08/2019 04:00 115.82 0.09 -- 68.0 -- 10.0
08/08/2019 03:00 115.82 0.16 -- 68.0 -- 8.8
08/08/2019 02:00 115.81 0.06 -- 69.0 -- 8.5
08/08/2019 01:00 115.81 0.56 -- 69.0 -- 7.8
08/08/2019 00:00 115.79 0.58 1.29 70.0 -- 4.5
08/07/2019 23:00 115.75 0.23 -- 70.0 -- 3.5
08/07/2019 22:00 115.72 0.00 -- 71.0 -- 3.0
08/07/2019 21:00 115.72 0.00 -- 71.0 -- 3.0
08/07/2019 20:00 115.72 0.63 -- 70.0 -- 2.8
08/07/2019 19:00 115.64 0.00 -- 74.0 -- 2.0
08/07/2019 18:00 115.65 0.00 -- 74.0 -- 2.0
08/07/2019 17:00 115.65 0.18 -- 72.0 -- 2.0
08/07/2019 16:00 115.63 0.00 -- 83.0 -- 2.0
08/07/2019 15:00 115.63 0.00 -- 83.0 -- 2.0
08/07/2019 14:00 115.63 0.00 -- 82.0 -- 2.0
08/07/2019 13:00 115.63 0.00 -- 80.0 -- 2.0
08/07/2019 12:00 115.63 0.00 -- 79.0 -- 2.0
08/07/2019 11:00 115.64 0.00 -- 76.0 -- 2.0
08/07/2019 10:00 115.65 0.00 -- 73.0 -- 2.0
08/07/2019 09:00 115.65 0.00 -- 72.0 -- 2.0
08/07/2019 08:00 115.64 0.00 -- 68.0 -- 2.0
08/07/2019 07:00 115.64 0.00 -- 66.0 -- 2.0
08/07/2019 06:00 115.63 0.00 -- 64.0 -- 2.0
08/07/2019 05:00 115.63 0.00 -- 65.0 -- 2.0
08/07/2019 04:00 115.63 0.00 -- 66.0 -- 2.0
08/07/2019 03:00 115.63 0.00 -- 67.0 -- 2.0
08/07/2019 02:00 115.64 0.00 -- 67.0 -- 2.0
08/07/2019 01:00 115.63 0.00 -- 68.0 -- 2.0
08/07/2019 00:00 115.63 0.00 1.62 69.0 -- 2.0
08/06/2019 23:00 115.64 0.00 -- 69.0 -- 2.0
08/06/2019 22:00 115.63 0.00 -- 70.0 -- 2.0
08/06/2019 21:00 115.63 0.00 -- 72.0 -- 2.0
08/06/2019 20:00 115.63 0.00 -- 74.0 -- 2.0
08/06/2019 19:00 115.64 0.00 -- 76.0 -- 2.0
08/06/2019 18:00 115.63 0.00 -- 78.0 -- 2.0
08/06/2019 17:00 115.64 0.00 -- 76.0 -- 2.0
08/06/2019 16:00 115.64 0.00 -- 79.0 -- 2.0
08/06/2019 15:00 115.65 0.00 -- 78.0 -- 2.0
08/06/2019 14:00 115.66 0.00 -- 80.0 -- 2.0
08/06/2019 13:00 115.67 0.00 -- 80.0 -- 2.0
08/06/2019 12:00 115.67 0.00 -- 79.0 -- 2.0
08/06/2019 11:00 115.67 0.00 -- 77.0 -- 2.0
08/06/2019 10:00 115.68 0.00 -- 74.0 -- 2.0
08/06/2019 09:00 115.67 0.00 -- 69.0 -- 2.0
08/06/2019 08:00 115.68 0.00 -- 60.0 -- 2.0
08/06/2019 07:00 115.68 0.00 -- 58.0 -- 2.0
08/06/2019 06:00 115.68 0.00 -- 59.0 -- 2.0
08/06/2019 05:00 115.67 0.00 -- 59.0 -- 2.0
08/06/2019 04:00 115.67 0.00 -- 59.0 -- 2.0
08/06/2019 03:00 115.68 0.00 -- 61.0 -- 2.0
08/06/2019 02:00 115.68 0.00 -- 62.0 -- 2.0
08/06/2019 01:00 115.68 0.00 -- 62.0 -- 2.0
08/06/2019 00:00 115.69 0.00 0.00 64.0 -- 2.0
08/05/2019 23:00 115.68 0.00 -- 66.0 -- 2.0
08/05/2019 22:00 115.68 0.00 -- 68.0 -- 2.0
08/05/2019 21:00 -- -- -- 71.0 -- 2.0
08/05/2019 20:00 -- -- -- 77.0 -- 2.0
08/05/2019 19:00 -- -- -- 82.0 -- 2.0
08/05/2019 18:00 -- -- -- 81.0 -- 2.0
08/05/2019 17:00 -- -- -- 80.0 -- 2.0
08/05/2019 16:00 -- -- -- 79.0 -- 2.0
08/05/2019 15:00 -- -- -- 77.0 -- 2.0
08/05/2019 14:00 -- -- -- 76.0 -- 2.3
08/05/2019 13:00 -- -- -- 74.0 -- 3.0
08/05/2019 12:00 -- -- -- 72.0 -- 2.8
08/05/2019 11:00 -- -- -- 70.0 -- 3.0
08/05/2019 10:00 -- -- -- 69.0 -- 3.0
08/05/2019 09:00 -- -- -- 64.0 -- 3.0
08/05/2019 08:00 -- -- -- 55.0 -- 3.0
08/05/2019 07:00 -- -- -- 53.0 -- 3.0
08/05/2019 06:00 -- -- -- 53.0 -- 3.0
08/05/2019 05:00 -- -- -- 55.0 -- 3.0
08/05/2019 04:00 -- -- -- 57.0 -- 3.0
08/05/2019 03:00 -- -- -- 57.0 -- 2.8
08/05/2019 02:00 -- -- -- 60.0 -- 3.0
08/05/2019 01:00 -- -- -- 58.0 -- 2.8
08/05/2019 00:00 -- -- 0.00 61.0 -- 2.0